Terminal Aerodrome Forecast
Issued by NWS

Home | Current Version | Previous Version | Text Only | Print | Product List | Glossary On
Versions: 1 2 3 4 5 6 7 8 9 10 11 12 13 14 15 16 17 18 19 20 21 22 23 24 25
000
FTUS44 KMAF 010800 AAA
TAFHOB
TAF AMD
KHOB 010803Z 0108/0206 04004KT P6SM BKN060
     FM011600 06009G19KT P6SM SCT045 BKN250
     FM020200 VRB03KT P6SM BKN200=

USA.gov is the U.S. government's official web portal to all federal, state and local government web resources and services.